map of PSA home
Great Circle Mapper logo
PSA - Airport
Location
City:  Pisa, Tuscany, Italy
Near (Alt.):San Giusto
Name:Galileo Galilei International Airport
ICAO / IATA:LIRP / PSA

Details
Type:Airport (Aerodrome, Airfield)
Use:Public/Civil, Military, International (customs port of entry)
Latitude:4341'02"N (43.683917)
Longitude:1023'34"E (10.392750)
Datum:WGS 1984
Elevation:6 ft (2 m)
Runways:2
Longest:9820 × 148 ft (2993 × 45 m), paved

Time
Time Zone:UTC+1 (DST+2)
Local Time:

Weather
METAR:LIRP 310815Z 12004KT CAVOK 08/06 Q1026 NOSIG
TAF:LIRP 310500Z 3106/0106 10005KT CAVOK PROB30
TEMPO 3124/0106 5000 MIFG NSC

Related Locations
Nearby:
Farthest:CHT: 12098 mi / 19470 km
Waitangi [Tuuta], Chatham Islands, NZ

Find:

   beyond  
but within

Other Information
Maps:
NOTAMs:
Links:
Sources:

  
flag of Italy
flag of Tuscany
  

Airport Diagram

Airport diagram for PSA

Airport diagram (OBSOLETE) from NGA

Sectional Chart

Flight Planning
at skyvector.com

Satellite Image

Google Maps Satellite View

 

Copyright © 2004-2014 Karl L. Swartz. All rights reserved.
The Great Circle Mapper name and logo are trademarks of the Great Circle Mapper.
All other trademarks mentioned herein belong to their respective owners.
Please see credits for attibutions and further copyright information.

  Follow gcmap on Facebook Follow gcmap on Twitter

hCard Microformat

Geo Microformat